GEFSMA_500_meanwind_042.txt.gz
Wind_Speed
23 24 24 25 25 25 25 24 24 23 23 22 21 20 20 19 18 19 19 20 24 27 31 32 35 34 33 31 29 27 26 24 22 21 20 20 20 19 18 17 15 13 11
25 25 26 26 26 26 26 26 26 26 25 24 23 23 22 21 20 20 20 20 22 25 28 33 35 37 36 35 33 31 29 28 26 24 23 22 21 21 20 19 17 16 14
25 26 26 26 26 26 27 27 27 26 26 25 25 25 24 23 22 22 22 22 23 24 27 30 34 37 38 38 37 35 33 31 30 28 26 25 24 22 21 21 20 18 16
24 25 25 25 25 26 26 26 27 27 26 26 26 26 25 25 24 24 24 24 24 24 26 30 33 35 38 40 40 38 37 35 33 32 30 28 26 25 23 22 22 21 19
23 24 24 24 25 25 26 26 26 26 26 26 26 26 26 26 26 26 25 25 25 25 26 29 32 35 37 39 41 41 40 38 37 35 33 31 29 28 26 25 23 22 21
22 23 23 24 25 25 25 25 26 26 26 26 26 27 27 28 28 28 28 27 27 26 26 29 32 34 36 39 41 42 42 41 39 37 36 34 32 30 29 28 26 24 23
21 22 23 23 24 25 25 25 25 25 26 26 27 27 28 29 29 30 30 29 29 28 27 29 31 34 35 37 40 41 42 42 42 40 39 37 35 33 31 30 28 27 25
21 21 22 23 24 24 25 25 25 26 26 26 26 27 28 29 30 31 31 31 31 30 30 30 31 33 34 36 38 40 42 42 42 41 40 39 37 35 34 32 30 29 27
19 20 21 22 23 23 24 24 25 26 27 27 27 27 28 30 30 31 31 32 32 32 31 32 32 33 35 36 37 39 41 41 41 40 40 41 40 37 36 34 32 30 29
17 18 19 19 21 22 23 24 25 26 27 27 28 29 29 30 31 31 31 32 32 33 33 33 34 34 35 36 37 39 40 41 41 41 41 41 41 40 38 36 34 32 30
17 18 18 19 20 22 23 24 25 27 28 29 30 30 31 31 32 33 33 33 33 34 35 35 35 35 36 36 37 39 40 41 41 41 41 41 41 41 39 37 35 34 33
18 19 20 21 22 23 24 26 27 29 30 31 33 33 34 34 35 35 35 36 36 36 36 37 37 37 36 37 38 40 40 41 42 42 41 42 41 41 41 39 37 35 34
20 21 22 23 24 25 26 28 29 30 31 33 34 35 36 37 37 38 38 38 39 39 39 39 39 39 39 39 40 40 40 41 42 43 43 43 43 43 42 41 39 36 35
24 25 26 26 27 27 29 30 31 32 33 34 36 37 38 39 40 40 41 41 41 42 42 42 41 41 41 41 40 40 40 41 42 43 44 44 45 44 44 42 41 39 38
27 28 29 30 30 31 31 32 33 33 34 35 36 37 39 40 41 41 42 43 43 44 45 44 42 43 43 43 42 42 42 41 41 42 43 44 45 45 44 44 42 41 40
29 30 32 33 34 34 35 35 35 35 35 36 36 37 38 40 41 42 43 44 45 46 46 46 46 44 45 44 44 44 43 42 41 42 43 44 45 45 45 45 44 42 41
32 33 34 36 37 37 38 38 37 37 36 36 36 37 37 39 40 42 43 44 45 47 47 47 49 48 47 47 45 45 44 44 43 42 42 43 45 45 45 45 45 43 42
36 37 38 39 40 41 41 40 39 38 37 36 36 37 37 38 39 40 42 43 44 46 47 48 49 50 49 49 48 46 46 45 44 43 43 43 44 44 45 44 45 44 42
38 40 41 42 43 43 42 41 40 39 37 37 36 36 36 37 38 39 40 42 43 45 47 48 48 50 50 50 50 49 47 46 45 43 43 43 43 43 44 44 43 43 42
42 43 44 45 45 44 43 42 40 39 37 36 36 35 35 36 37 38 39 40 42 44 45 47 48 49 50 50 50 49 49 47 46 45 44 44 44 44 44 45 44 44 43
45 46 46 46 45 44 43 41 40 38 37 36 35 35 35 35 36 37 38 40 41 43 45 47 48 50 50 51 51 50 49 48 47 46 45 45 44 44 44 44 45 44 44
47 47 47 45 44 43 42 40 38 36 36 35 35 35 35 34 35 36 38 40 42 43 45 47 48 50 51 52 52 52 51 50 49 47 47 46 44 44 44 45 44 44 43
47 47 46 44 43 42 40 38 36 35 34 34 34 34 34 34 35 35 37 39 41 43 45 47 49 50 51 52 53 53 53 52 50 49 48 47 46 44 44 44 44 44 42
48 47 45 43 41 40 38 36 35 33 32 32 32 33 33 34 35 36 37 38 40 42 45 47 49 51 53 54 54 54 54 53 52 50 49 48 48 46 44 43 44 44 42
48 45 43 41 39 38 36 35 33 32 31 31 31 31 32 33 34 35 36 38 39 41 44 46 49 51 53 55 56 56 56 55 53 52 50 48 47 47 45 44 43 43 43
46 43 41 39 37 36 34 33 32 31 30 30 31 32 32 33 34 35 35 36 37 39 42 45 48 50 53 55 57 58 58 57 55 53 51 50 47 47 46 44 44 44 44

GEFSMA_500_meanwind_048.txt.gz
Wind_Speed
19 19 19 19 20 20 20 20 21 21 21 20 19 18 18 18 18 17 18 19 20 21 23 25 28 30 30 29 27 25 24 22 20 19 18 17 16 15 15 13 12 11 9
20 21 20 20 20 20 20 21 21 21 21 21 20 19 19 19 19 19 19 19 18 19 22 25 28 30 32 32 31 30 27 26 24 22 21 20 19 18 17 16 14 13 11
21 21 21 21 21 21 21 21 22 21 21 21 21 21 21 21 20 20 20 20 20 19 20 24 27 30 32 34 33 33 31 29 27 26 24 23 22 21 20 19 17 15 13
21 21 21 21 22 22 22 22 22 21 21 21 21 22 22 22 22 22 22 22 21 22 21 22 25 28 31 34 36 35 35 33 31 29 27 26 24 23 22 21 20 18 16
20 20 20 21 21 21 21 22 22 22 22 22 22 22 22 23 23 23 23 24 24 23 23 23 25 26 29 32 35 37 37 36 35 33 31 29 27 26 25 24 22 21 19
19 19 19 20 20 20 20 20 21 22 22 22 22 23 23 23 24 24 24 25 25 25 25 25 25 27 28 29 33 36 38 39 39 37 35 33 31 29 27 26 25 23 22
17 18 18 18 18 18 18 19 20 21 21 21 21 22 23 23 24 24 25 25 26 27 26 26 26 28 28 30 32 35 37 39 41 40 39 37 35 33 31 29 28 26 24
17 17 17 17 17 17 17 18 18 19 20 20 21 21 23 24 24 24 25 26 27 28 28 28 28 29 30 30 31 34 37 39 41 42 42 41 39 37 35 33 31 30 28
17 17 17 17 16 16 17 17 18 19 19 20 20 21 22 24 24 24 25 26 27 28 28 29 29 29 31 32 32 33 35 39 41 43 43 43 43 41 39 37 35 33 31
18 18 17 17 17 17 18 18 19 20 20 21 21 21 22 23 24 25 25 26 27 27 28 29 30 30 31 32 33 33 34 36 39 42 44 45 45 44 42 41 39 37 35
18 19 19 19 19 20 20 21 21 21 22 22 23 23 24 25 26 26 27 27 28 28 30 30 30 30 31 32 33 34 34 35 37 41 43 44 45 46 45 43 42 40 38
20 20 21 22 22 22 23 24 24 24 24 25 26 26 26 27 28 29 29 30 31 31 31 32 31 31 31 33 34 34 35 35 36 38 41 43 45 46 46 45 45 43 41
23 22 23 23 24 25 26 27 27 27 28 28 29 30 30 30 31 31 32 32 33 33 34 34 34 34 34 34 35 36 35 37 37 37 39 42 44 45 46 46 46 46 45
24 24 24 25 26 27 28 28 29 30 31 32 33 33 34 34 34 34 35 35 35 36 37 37 37 37 37 37 37 37 37 37 38 38 38 40 42 44 45 45 46 46 46
24 25 25 26 28 29 30 31 32 33 35 35 36 37 37 38 38 38 38 38 38 38 38 39 40 39 39 39 39 39 39 39 39 39 40 40 41 43 44 44 45 46 46
25 26 27 28 30 31 32 34 35 37 38 38 39 39 40 40 40 41 41 41 41 40 40 41 42 42 41 40 40 41 42 41 40 39 40 40 41 43 43 43 44 46 46
26 28 30 31 33 34 35 36 37 38 39 40 41 41 41 41 41 42 42 42 42 42 42 41 43 43 42 42 41 42 42 42 42 41 41 41 41 42 43 43 44 46 46
28 31 33 34 36 36 37 38 39 40 40 40 40 41 41 41 41 42 42 43 43 43 43 42 43 44 44 43 42 43 44 43 43 41 41 42 42 42 42 43 44 45 46
31 33 35 37 38 39 39 40 40 41 41 40 40 39 39 39 40 40 41 41 41 42 42 42 42 43 44 44 43 44 44 45 44 42 41 41 42 42 42 43 43 45 46
33 35 37 39 40 41 41 41 42 41 41 40 39 38 37 37 37 38 38 38 39 40 40 41 41 42 43 44 44 44 45 45 46 45 44 41 40 41 41 42 42 43 45
35 37 39 41 42 42 42 42 42 41 40 38 37 36 36 35 35 36 36 36 37 37 38 39 39 40 41 42 43 44 45 45 45 45 45 44 42 42 41 41 41 42 44
37 40 41 42 43 43 42 42 41 40 39 37 36 35 34 34 33 33 34 34 35 35 36 38 38 39 40 41 42 42 44 44 44 45 46 45 44 43 43 42 41 41 42
40 42 43 43 43 43 43 42 41 39 37 36 35 34 33 32 32 31 32 33 33 34 35 36 37 38 40 41 41 42 43 44 44 45 46 45 44 42 42 43 42 42 41
43 44 45 45 44 44 44 42 40 37 36 35 34 33 32 31 31 30 30 31 32 33 34 35 36 38 40 41 42 42 42 43 44 45 45 45 44 43 41 42 43 42 41
45 45 45 46 45 44 43 41 39 36 35 34 33 33 31 30 30 30 30 31 31 32 34 34 35 36 37 39 41 42 42 43 44 45 45 45 45 43 41 41 42 42 41
47 47 47 46 45 44 43 41 39 37 35 34 33 32 31 30 30 31 31 31 31 32 33 34 35 35 37 39 40 41 42 43 44 45 45 45 45 44 42 41 41 42 42

GEFSMA_500_meanwind_054.txt.gz
Wind_Speed
12 12 13 14 15 15 15 15 15 15 15 16 16 17 17 17 16 16 15 16 17 17 18 18 19 20 22 23 23 22 21 20 18 17 16 15 14 14 14 14 13 11 8
11 12 12 13 13 14 14 14 15 15 16 16 16 17 17 17 17 17 16 16 17 18 19 19 19 21 22 24 25 25 24 23 22 20 19 18 17 16 16 15 14 13 10
9 10 11 12 12 13 13 14 14 15 16 16 16 17 17 17 17 18 18 18 18 18 18 20 21 21 22 24 26 26 27 26 25 24 22 21 20 19 18 17 16 15 13
9 9 9 10 10 11 12 12 13 14 15 16 16 17 17 18 18 18 18 18 19 19 20 20 20 22 23 24 26 27 28 28 27 27 25 24 22 22 21 20 18 17 15
9 9 9 9 10 10 11 12 12 13 14 15 16 16 17 18 18 19 19 19 19 20 21 22 21 22 23 24 26 28 29 30 30 30 29 27 26 24 23 22 21 20 18
8 9 9 9 9 9 9 10 11 12 12 13 14 16 17 17 18 19 19 19 19 20 22 23 23 23 23 24 26 28 30 31 32 33 32 31 29 28 27 25 24 23 21
9 10 9 9 9 9 10 10 11 11 12 12 13 15 16 16 17 18 19 20 21 21 22 23 24 25 25 26 27 29 30 33 33 34 35 34 33 31 30 29 27 26 25
11 11 11 10 10 10 10 11 11 11 11 12 13 14 15 16 17 18 19 20 21 22 23 24 25 26 27 27 27 28 30 32 35 36 36 37 36 35 34 32 31 29 27
11 11 12 12 12 12 12 12 13 13 13 13 14 14 16 16 17 18 19 20 21 22 23 24 25 27 28 28 28 29 31 32 33 35 38 38 38 38 38 36 34 32 31
13 13 13 13 14 14 14 15 15 16 16 16 15 16 16 17 17 18 19 20 21 22 23 24 25 27 28 29 29 31 32 33 34 35 37 38 39 40 41 40 38 37 34
14 14 15 16 16 16 16 16 17 18 18 19 18 18 18 19 19 20 20 21 22 22 23 24 26 27 28 29 30 32 33 34 35 35 36 38 39 40 42 43 42 40 38
14 15 16 17 17 17 18 18 18 19 20 20 21 21 22 22 22 22 23 24 24 24 25 26 27 28 29 30 30 32 34 35 35 36 37 38 39 40 41 43 45 44 42
15 16 16 17 17 18 19 19 20 21 21 22 23 24 25 26 26 26 27 27 27 28 28 28 29 29 30 31 32 32 34 35 36 36 37 39 39 40 41 43 45 46 45
15 16 16 17 18 19 21 22 23 24 24 25 25 26 26 27 28 29 30 30 31 32 32 32 32 32 32 33 34 35 36 36 37 38 38 39 40 41 41 42 44 46 47
16 17 17 18 20 21 22 23 25 26 26 27 28 28 29 29 30 31 31 32 32 33 35 36 36 35 35 35 36 36 38 38 39 39 40 40 41 42 42 42 43 45 47
19 20 20 21 22 23 24 26 28 29 29 30 30 31 31 32 32 33 33 34 34 35 36 38 39 39 39 38 38 38 39 40 41 41 41 41 42 42 43 44 44 45 46
22 23 24 25 25 26 27 29 30 32 32 33 33 33 33 34 34 35 35 35 36 36 35 38 40 41 41 41 41 41 41 42 43 43 43 43 43 43 43 43 43 45 46
24 25 25 26 28 28 29 30 31 34 35 35 34 34 35 35 36 36 35 35 35 36 35 36 38 41 42 43 42 43 43 44 44 45 45 45 44 44 44 43 43 44 45
25 26 27 28 29 30 32 33 34 36 37 36 36 36 36 36 36 36 35 35 35 35 35 34 36 39 40 42 43 43 44 45 46 46 46 47 46 46 45 45 44 44 44
28 29 30 31 32 33 34 35 36 37 37 37 37 38 38 37 37 36 35 35 35 34 34 34 34 37 38 40 41 41 43 44 45 47 47 47 47 46 46 46 45 45 45
30 31 31 32 34 35 36 36 37 38 38 39 39 39 39 39 38 37 36 35 35 34 34 34 34 35 36 38 39 40 41 42 44 46 46 47 47 47 47 46 46 46 45
32 33 34 34 36 36 36 37 37 37 38 39 39 40 39 39 38 37 36 36 35 34 33 33 32 33 34 36 37 38 39 41 42 45 46 47 48 48 48 47 47 46 45
35 35 36 37 37 38 38 38 38 37 38 39 40 40 40 40 39 37 36 35 35 34 33 32 32 32 33 34 35 36 38 39 40 43 45 46 48 48 49 49 48 47 46
37 38 39 39 40 40 40 39 39 40 40 40 41 41 40 40 39 38 36 35 34 34 33 32 31 32 33 34 34 35 36 38 39 42 44 44 47 48 49 50 50 48 47
40 41 41 42 41 41 41 41 41 42 42 42 41 41 40 39 39 38 36 35 34 34 34 33 32 32 33 33 34 34 35 37 38 41 43 43 45 48 49 50 50 49 48
43 43 44 44 44 44 44 45 44 44 43 43 42 42 41 40 38 37 36 35 34 34 34 34 33 33 33 33 34 34 34 35 37 39 42 43 44 47 47 49 50 51 49

GEFSMA_500_meanwind_060.txt.gz
Wind_Speed
10 10 10 10 11 12 12 12 13 13 13 12 12 12 11 11 12 12 12 13 14 14 15 15 17 18 20 21 21 21 20 19 18 17 16 15 15 15 14 13 12 11 8
8 8 9 9 10 10 11 11 11 12 12 13 13 12 12 12 12 12 13 13 13 14 15 16 17 18 19 21 23 23 22 21 20 19 18 17 17 16 16 15 14 13 11
7 7 7 8 8 9 9 10 10 11 11 12 12 13 13 12 12 13 13 14 14 14 15 16 17 19 20 21 23 24 24 24 23 22 21 20 19 18 18 17 16 15 13
6 6 6 6 7 8 8 9 9 9 10 11 12 12 12 13 13 13 13 13 14 15 16 16 17 19 20 21 22 23 25 26 26 25 24 23 22 21 20 19 19 17 16
6 6 6 6 7 7 7 8 8 9 10 10 11 11 11 12 13 13 13 14 14 15 16 17 17 18 20 21 23 23 24 26 27 27 27 27 25 24 23 22 21 20 19
6 6 6 7 7 7 7 7 8 8 9 10 10 11 11 12 12 13 14 14 15 16 17 17 17 18 20 21 23 25 25 26 27 29 30 29 29 28 27 25 24 23 22
6 6 6 7 7 7 7 8 8 9 9 10 10 11 11 12 12 13 13 14 15 16 17 18 19 19 20 22 23 24 26 27 28 29 30 32 31 31 30 29 28 26 25
6 6 7 7 8 8 8 9 9 10 10 10 11 11 11 12 12 13 13 14 15 16 17 18 19 20 21 23 24 25 26 27 29 30 30 32 33 33 33 33 31 30 28
6 7 7 8 9 9 8 8 9 9 10 11 12 13 13 13 13 13 14 15 15 16 18 19 20 21 22 23 24 26 27 27 28 31 32 33 34 35 36 35 35 33 32
6 7 7 8 8 9 9 9 9 9 10 11 13 14 14 15 15 15 15 16 17 17 18 19 20 22 23 24 26 26 28 28 29 29 31 33 36 37 37 38 38 37 35
6 7 7 8 8 8 9 10 10 11 11 12 13 14 15 16 17 17 18 18 19 20 20 20 21 22 23 24 26 27 29 30 30 31 31 32 34 37 39 39 40 40 39
6 7 7 8 8 9 10 11 12 13 13 14 15 16 16 17 18 19 20 20 21 22 23 23 24 24 24 25 27 28 29 30 32 33 34 34 34 36 38 39 41 41 41
7 8 9 10 11 11 12 13 13 15 15 16 17 17 18 18 19 20 21 22 22 23 24 25 26 27 27 28 28 29 30 31 33 34 34 35 36 37 38 38 39 42 43
10 11 12 13 14 15 15 16 17 18 18 19 19 20 20 20 20 21 22 23 24 24 25 26 27 28 30 31 31 32 32 33 34 35 36 36 37 38 39 40 40 40 43
13 14 15 16 17 17 18 18 19 20 20 21 22 23 23 23 23 23 23 24 24 25 26 27 28 29 30 32 34 35 36 36 36 37 38 38 38 39 40 41 42 42 42
15 16 17 18 19 19 20 20 21 21 22 23 24 25 25 26 26 26 25 25 26 26 28 30 30 30 31 32 34 36 38 39 40 40 40 40 41 41 41 42 43 44 44
18 19 20 21 22 22 23 23 24 24 25 25 26 27 27 28 28 27 28 28 28 28 29 30 31 32 32 33 34 36 38 40 42 43 43 44 44 44 44 43 43 44 45
21 22 23 24 24 25 25 26 26 27 27 28 29 29 30 30 30 30 30 29 29 29 29 30 32 33 34 34 34 35 37 39 41 44 45 46 47 46 47 46 46 45 46
24 25 26 26 27 27 28 28 29 29 30 30 30 31 32 32 32 32 32 31 31 31 31 31 32 34 35 36 36 36 36 38 40 42 45 47 49 50 49 49 49 48 48
27 28 29 29 30 30 31 31 31 31 31 32 33 33 34 33 34 34 33 33 33 33 33 33 34 35 36 37 38 37 37 38 39 41 43 46 49 51 52 52 51 50 50
29 31 32 32 33 33 33 33 34 34 34 35 36 36 35 35 36 35 35 35 35 35 35 35 35 36 37 38 38 38 38 38 39 40 42 45 47 49 52 53 54 53 52
32 33 34 35 35 35 36 36 36 36 37 37 38 38 38 38 38 37 37 37 37 37 37 37 37 37 37 39 39 38 38 38 38 40 41 43 46 48 50 52 54 55 54
35 36 36 37 37 38 39 39 39 39 39 39 40 40 40 39 39 39 39 39 39 39 39 39 38 38 39 39 39 38 38 38 38 39 40 40 43 45 48 50 52 54 55
38 38 39 40 41 40 42 43 43 42 42 42 42 42 42 41 42 42 41 41 41 41 41 40 39 39 39 40 39 39 39 38 38 39 40 39 41 43 46 48 49 51 53
41 42 43 44 44 44 45 46 47 46 45 45 45 44 44 44 44 44 43 42 42 43 43 41 40 39 40 40 40 39 39 39 38 39 40 39 40 42 44 46 48 50 52
45 46 47 48 49 48 48 49 49 49 48 48 47 47 47 47 46 47 46 44 43 44 44 42 41 40 40 40 40 40 39 39 38 38 40 40 40 41 41 43 46 49 51

GEFSMA_500_meanwind_066.txt.gz
Wind_Speed
6 6 6 5 5 6 6 6 5 6 6 7 7 8 8 9 9 10 10 11 12 12 13 13 14 15 15 17 20 19 19 19 18 17 16 15 14 14 13 12 11 10 8
4 4 4 4 4 4 4 4 4 5 5 5 6 6 8 9 9 10 10 11 12 13 13 14 15 15 15 16 19 21 21 20 20 19 19 17 16 15 15 14 13 12 11
3 3 4 3 3 3 4 4 4 4 4 4 5 5 7 8 9 10 10 11 11 12 13 14 15 15 15 15 18 20 22 22 22 21 21 20 19 18 17 17 16 15 13
2 3 3 3 3 3 3 3 3 3 3 4 4 4 6 7 8 9 10 11 11 12 13 14 14 15 15 15 17 19 21 22 24 24 23 23 22 20 19 19 18 17 16
2 2 3 3 3 3 3 3 3 3 3 3 4 4 5 6 7 8 9 10 10 12 13 13 14 14 15 16 17 19 20 21 24 25 26 25 25 23 22 21 21 20 19
2 2 2 2 2 3 3 3 3 3 4 4 4 5 5 6 7 8 9 10 11 12 12 13 14 15 15 16 17 19 21 21 22 25 27 28 28 27 26 25 23 22 22
1 1 2 2 2 2 3 3 3 3 4 4 4 5 5 6 7 8 10 11 12 13 13 14 14 15 16 17 17 18 19 21 21 23 25 28 29 30 29 29 27 26 25
1 0 1 2 2 2 2 3 3 3 3 3 4 4 5 6 7 8 9 10 11 12 13 14 15 15 16 17 18 19 20 21 21 23 24 26 28 30 32 32 31 30 28
1 0 0 1 1 2 3 3 3 3 4 4 5 5 6 7 8 8 9 11 12 12 13 14 15 16 17 18 19 20 20 22 22 23 24 26 27 29 31 33 34 33 32
2 1 1 0 0 1 2 3 4 4 5 6 6 7 7 8 9 10 11 12 13 13 14 16 16 17 17 18 20 20 21 22 23 24 24 25 27 29 30 32 35 36 36
3 2 2 2 2 2 3 4 5 6 7 8 8 9 9 10 11 12 13 14 14 15 16 17 18 19 19 19 20 20 22 22 24 25 26 27 27 29 30 31 34 36 37
4 4 4 4 4 5 6 7 7 8 9 10 11 11 12 13 14 15 15 15 15 16 17 18 19 20 21 22 22 22 23 23 24 26 26 27 28 29 30 31 32 35 38
7 7 7 7 8 9 9 10 10 11 11 12 13 13 14 15 16 16 16 17 18 18 19 19 20 21 22 23 23 24 25 25 26 27 28 29 30 30 31 32 33 34 36
9 10 11 11 11 11 12 13 13 14 14 15 15 15 16 17 18 18 19 20 20 21 20 21 22 22 23 24 24 26 26 27 28 29 29 30 31 32 33 34 34 35 36
13 13 14 14 14 15 16 16 16 17 17 18 18 18 19 19 19 20 21 21 22 23 23 22 22 23 24 25 26 27 28 29 30 31 32 32 33 34 34 35 36 36 37
16 17 17 18 18 18 19 19 20 20 20 20 21 21 21 22 22 22 23 24 24 25 25 26 25 25 25 26 27 28 29 30 30 31 32 34 35 36 37 37 38 38 39
20 20 21 22 22 22 22 22 23 23 23 23 23 23 23 23 24 24 24 25 25 26 26 27 27 27 27 26 27 28 29 30 31 32 33 34 35 37 38 39 40 40 41
24 25 25 25 26 26 26 25 25 25 26 26 26 25 25 25 25 25 26 26 26 27 28 28 29 28 28 28 27 28 28 29 31 32 33 34 35 36 38 39 41 42 43
27 28 28 28 28 28 28 28 28 28 28 28 28 28 28 27 28 28 28 28 28 29 29 29 30 30 30 31 30 30 30 30 31 32 33 35 36 37 38 39 41 42 44
29 30 31 31 31 30 30 30 30 30 30 30 30 30 30 30 30 31 31 31 31 31 31 31 31 32 32 33 33 33 33 33 33 34 35 36 37 38 39 39 41 42 44
31 32 32 33 33 32 32 32 33 33 32 32 32 32 33 33 33 34 34 34 34 33 33 33 33 33 34 35 35 34 34 34 34 35 36 37 38 38 39 40 41 41 43
33 34 34 34 35 35 35 35 36 35 35 35 35 35 36 36 37 37 37 38 37 37 36 36 36 36 36 37 36 36 36 36 36 37 37 38 38 38 39 40 41 42 43
36 36 37 38 38 38 39 39 40 40 39 39 39 39 40 40 40 41 41 41 41 40 40 40 39 39 39 39 39 38 38 38 38 39 38 38 39 40 40 41 41 42 43
39 39 40 41 42 42 43 44 44 45 44 44 44 44 44 44 44 44 45 44 44 43 43 43 42 42 42 42 41 41 40 40 40 40 40 40 40 41 41 42 42 43 44
42 43 43 45 45 45 47 47 48 49 49 48 48 48 48 48 48 48 49 48 47 46 46 46 46 45 45 44 44 43 43 43 42 42 42 41 42 42 42 43 43 43 44
46 47 48 48 49 50 51 51 52 53 53 53 53 53 52 52 52 52 52 51 51 50 50 50 49 48 47 47 46 46 46 45 44 43 44 43 43 43 43 43 44 45 45

GEFSMA_500_meanwind_072.txt.gz
Wind_Speed
7 7 6 6 5 5 6 5 5 5 5 5 6 7 7 7 7 7 9 8 8 9 9 9 10 12 13 13 14 16 17 17 16 16 15 13 12 11 10 9 8 7 6
5 5 5 5 5 5 5 4 4 3 3 3 3 5 6 6 6 6 6 7 7 8 9 10 10 10 12 12 13 14 18 19 18 18 17 16 15 14 12 11 11 10 8
4 4 4 4 4 4 3 3 3 3 2 1 1 2 2 4 6 5 5 6 6 7 8 9 9 10 11 11 12 13 16 19 19 20 19 19 18 17 15 14 13 12 11
3 3 3 3 3 3 3 2 2 2 2 2 1 1 1 2 4 4 4 5 5 6 7 8 9 9 10 12 12 12 14 16 19 20 20 21 20 19 18 17 16 15 14
3 3 3 2 3 3 2 2 1 1 1 2 2 2 2 3 4 4 4 5 5 6 7 7 8 9 9 10 12 12 13 15 17 20 20 21 22 22 21 20 19 17 16
2 2 2 2 2 2 2 2 3 3 2 2 2 2 3 3 4 4 5 5 6 6 7 7 8 9 9 10 11 11 12 13 16 18 20 21 22 23 24 23 22 20 19
2 1 0 2 2 2 2 3 4 4 4 4 4 4 3 4 4 4 5 5 6 7 7 8 9 9 9 10 10 11 12 12 14 16 18 20 22 23 24 25 25 24 23
3 2 1 1 2 3 3 3 4 4 4 4 4 5 5 4 4 5 6 6 7 8 9 9 10 10 10 11 11 11 13 13 13 15 16 17 19 21 22 24 25 26 26
3 3 2 1 1 1 2 2 3 3 4 4 5 5 5 5 6 6 7 8 8 9 10 10 11 11 11 11 12 13 13 14 14 15 16 18 19 20 21 22 24 26 28
5 4 3 2 2 1 0 2 2 3 3 4 5 6 6 6 7 7 9 9 10 11 11 11 12 12 13 13 13 14 15 15 15 16 17 18 19 20 22 22 23 24 26
6 5 5 4 3 3 3 3 4 4 5 6 7 8 8 9 9 10 10 11 11 12 12 13 13 13 14 14 14 15 16 16 16 17 18 18 19 20 22 22 24 25 26
7 7 7 6 6 6 6 6 7 7 8 8 9 10 11 11 12 13 14 13 13 13 14 14 15 15 15 15 16 17 17 18 18 19 19 20 20 21 21 23 24 25 26
9 9 8 8 8 8 9 9 10 10 11 12 13 13 14 15 16 16 16 16 16 15 16 17 17 18 18 17 18 19 19 19 20 21 21 21 22 22 23 23 24 25 26
11 11 11 11 11 11 12 13 13 14 15 16 16 17 17 18 18 19 19 19 19 19 18 18 19 20 21 20 20 20 21 21 22 23 23 24 24 25 25 25 26 27 27
13 13 13 13 14 14 15 16 17 18 19 19 20 20 21 21 22 22 22 23 23 23 22 21 21 22 22 22 22 22 22 23 24 24 25 25 26 27 27 28 28 28 29
16 16 16 17 17 18 18 19 20 21 22 22 23 23 24 24 25 25 26 26 26 26 26 25 23 23 23 24 24 25 25 25 26 26 26 27 27 28 29 30 30 31 31
18 18 19 19 20 20 21 22 22 23 24 25 25 26 27 27 27 28 28 28 28 28 28 28 27 26 25 26 26 25 26 26 26 27 27 28 28 29 30 30 31 32 33
21 21 22 22 22 23 23 24 25 25 26 27 28 28 29 29 30 30 30 30 30 30 30 30 30 30 29 28 28 28 28 28 28 29 29 29 29 29 30 31 32 32 33
23 24 24 25 25 25 26 27 28 28 29 29 30 30 30 31 31 32 32 32 33 33 33 32 32 33 32 32 31 31 31 31 31 31 31 31 31 32 32 32 33 33 34
25 26 26 27 27 28 29 29 30 30 31 31 32 32 32 33 34 34 34 35 36 36 36 35 35 35 35 34 34 33 33 33 33 34 33 33 33 34 34 35 34 34 35
27 28 28 29 29 30 30 31 32 33 33 33 34 34 35 36 37 37 38 38 38 39 39 39 39 39 39 38 38 37 37 36 36 37 36 35 35 34 35 36 36 36 36
29 30 30 32 32 32 32 33 34 35 36 36 37 38 39 39 40 40 41 41 42 42 43 43 43 42 42 42 42 41 41 40 39 39 39 37 37 37 37 36 36 37 37
31 32 34 34 34 34 35 36 38 39 39 39 40 41 42 43 44 44 44 44 45 46 46 47 47 46 46 45 45 44 43 43 41 41 41 39 39 39 39 39 38 37 38
34 35 35 36 37 37 38 39 41 42 43 43 44 45 46 46 47 48 48 47 47 48 49 50 50 49 49 49 49 48 47 46 44 43 44 43 42 41 41 40 40 39 39
38 38 39 40 41 41 42 42 43 44 46 47 48 49 49 50 51 52 53 52 52 52 52 53 53 53 52 52 52 52 50 49 47 46 46 45 44 44 43 42 41 41 40
40 40 42 43 43 43 44 45 47 48 49 50 51 52 54 55 56 56 57 57 57 57 57 58 57 56 55 55 54 54 54 53 52 50 49 49 48 47 45 44 44 43 42

GEFSMA_500_meanwind_078.txt.gz
Wind_Speed
6 5 5 5 5 5 5 5 5 6 6 5 5 5 5 5 6 5 4 4 5 5 5 5 6 7 8 9 10 12 13 14 13 13 12 12 11 11 10 10 9 8 7
5 5 4 4 3 3 3 3 3 3 4 4 3 3 3 4 4 4 3 3 3 4 4 5 6 6 7 9 10 10 11 13 14 14 14 14 13 13 12 11 11 10 9
4 3 3 3 3 2 2 2 2 2 2 2 2 1 1 2 2 3 2 2 2 3 4 5 5 5 6 7 9 10 10 11 14 16 16 16 15 15 14 14 13 12 12
4 2 2 2 1 1 1 1 1 1 1 1 0 1 1 1 1 2 1 1 1 1 3 4 4 4 5 6 8 9 10 11 12 14 15 16 17 17 16 16 16 15 14
4 3 2 1 1 1 1 1 1 2 1 1 1 1 1 2 2 1 1 1 1 2 2 3 3 4 5 6 7 9 10 10 11 13 15 16 16 17 18 18 18 17 16
5 4 3 2 2 2 3 3 3 3 3 3 2 2 2 2 2 2 2 1 1 1 0 1 2 3 4 5 6 8 9 10 10 12 14 16 17 17 18 19 20 20 19
6 5 4 4 4 4 5 5 5 5 4 4 4 4 3 3 3 2 1 1 1 1 1 2 2 3 4 5 5 6 8 9 10 10 12 14 17 18 19 19 20 22 22
7 6 6 5 5 5 5 5 5 5 4 4 3 3 3 3 3 2 2 2 2 2 2 3 3 4 5 5 6 7 8 9 10 11 11 12 15 17 19 20 20 21 22
8 8 7 7 6 6 5 5 4 4 4 3 3 3 2 2 2 2 2 2 3 3 3 3 4 5 5 5 6 7 8 9 10 11 12 12 13 15 17 19 20 21 22
9 9 8 8 7 6 5 4 3 3 3 2 2 1 1 0 1 2 2 3 4 4 4 4 5 5 6 6 7 7 8 9 10 11 12 13 13 14 16 18 19 21 22
11 11 10 9 8 7 6 5 4 3 3 3 2 2 2 3 4 4 5 5 5 5 5 6 6 7 8 8 9 9 9 10 11 12 13 14 15 16 16 17 19 20 21
12 12 12 11 10 9 8 7 6 6 6 5 5 5 6 6 7 8 8 8 8 7 7 7 8 9 10 10 11 11 11 12 12 13 14 14 15 16 17 18 19 21 21
14 13 13 12 12 12 11 11 10 9 9 9 9 9 9 10 10 11 11 11 11 11 11 11 11 11 12 12 12 13 13 14 14 15 16 16 17 17 18 19 20 21 22
15 14 14 14 14 14 14 13 13 13 13 13 13 13 14 14 14 14 14 14 14 14 14 15 15 15 15 15 15 15 15 15 16 17 17 18 19 20 20 21 22 22 23
16 16 16 16 16 16 16 16 16 16 17 17 17 18 18 17 17 17 17 17 17 17 17 17 17 18 18 18 18 18 18 18 18 19 19 20 21 21 22 23 24 24 25
18 18 18 18 18 18 19 19 20 20 20 21 21 21 21 21 21 21 21 21 21 20 20 20 20 20 21 21 22 22 22 21 21 21 21 22 22 23 24 24 25 26 26
20 20 20 21 21 21 22 22 23 23 23 24 24 25 24 24 24 24 24 24 24 24 24 23 23 23 23 24 24 24 25 25 25 25 24 24 24 25 25 26 27 27 28
22 22 23 23 24 24 25 25 26 26 26 27 27 28 28 27 27 27 27 27 27 27 27 27 26 26 26 26 26 27 27 27 28 28 28 28 28 28 28 29 29 29 30
23 24 25 26 27 27 28 28 29 29 29 29 29 30 30 30 30 30 30 30 30 30 29 29 29 29 29 30 30 30 30 30 30 31 31 31 32 32 32 32 32 32 32
24 26 26 28 29 30 31 31 31 32 32 32 32 31 31 32 32 33 33 33 33 33 33 32 33 33 33 34 34 34 34 35 35 35 34 34 34 35 35 35 35 35 35
26 27 28 29 30 32 33 33 33 33 34 34 34 34 34 35 35 35 36 36 36 36 36 37 37 37 37 38 39 40 39 39 38 39 39 39 39 39 39 39 39 39 38
29 29 30 31 32 34 34 35 35 35 36 37 37 37 38 38 38 38 38 38 39 39 40 41 41 41 41 42 43 44 43 43 42 42 44 43 43 42 43 43 42 42 42
30 31 31 33 33 34 35 35 36 37 38 38 39 40 40 40 41 41 41 42 42 43 44 45 45 45 46 46 47 47 47 47 46 46 48 47 47 46 46 46 46 46 45
32 34 35 36 36 36 37 36 37 38 39 40 41 42 42 43 43 44 44 45 46 47 48 49 49 49 50 50 51 52 52 52 51 51 52 51 50 50 50 49 49 48 48
33 34 35 35 35 37 38 38 39 40 40 41 42 42 43 44 45 46 47 49 49 50 52 53 54 54 55 55 56 57 57 57 56 55 55 55 54 54 53 52 51 51 50
33 35 35 35 35 37 38 39 39 40 41 42 43 44 46 47 49 50 51 52 54 55 56 58 58 59 60 60 61 63 63 63 63 61 60 61 59 60 58 56 55 54 53